TimeCST,TemperatureF,Dew PointF,Humidity,Sea Level PressureIn,VisibilityMPH,Wind Direction,Wind SpeedMPH,Gust SpeedMPH,PrecipitationIn,Events,Conditions,WindDirDegrees,DateUTC
12:53 AM,25.0,19.9,81,30.20,10.0,NW,3.5,-,N/A,,Clear,320,2013-02-16 06:53:00
1:53 AM,26.1,17.1,69,30.19,10.0,NNW,10.4,-,N/A,,Clear,330,2013-02-16 07:53:00
2:53 AM,24.1,16.0,71,30.19,10.0,NNW,8.1,-,N/A,,Clear,330,2013-02-16 08:53:00
3:53 AM,24.1,16.0,71,30.19,10.0,NNW,12.7,-,N/A,,Clear,340,2013-02-16 09:53:00
4:53 AM,23.0,15.1,72,30.20,10.0,NNW,6.9,-,N/A,,Partly Cloudy,340,2013-02-16 10:53:00
6:28 AM,23.0,15.8,74,30.18,10.0,WNW,9.2,-,N/A,,Mostly Cloudy,300,2013-02-16 12:28:00
6:42 AM,21.2,15.8,80,30.18,9.0,WNW,10.4,-,N/A,,Scattered Clouds,300,2013-02-16 12:42:00
6:53 AM,21.9,15.1,75,30.21,8.0,WNW,11.5,-,N/A,,Partly Cloudy,300,2013-02-16 12:53:00
7:53 AM,25.0,16.0,69,30.22,9.0,NW,13.8,-,N/A,,Mostly Cloudy,320,2013-02-16 13:53:00
8:53 AM,25.0,14.0,63,30.23,9.0,WNW,12.7,-,N/A,,Scattered Clouds,300,2013-02-16 14:53:00
9:02 AM,24.8,15.8,69,30.21,9.0,NW,15.0,-,N/A,,Mostly Cloudy,310,2013-02-16 15:02:00
9:13 AM,26.6,12.2,55,30.21,10.0,NW,12.7,-,N/A,,Partly Cloudy,310,2013-02-16 15:13:00
9:41 AM,26.6,14.0,59,30.22,10.0,NW,17.3,-,N/A,,Mostly Cloudy,310,2013-02-16 15:41:00
9:53 AM,28.0,14.0,56,30.24,10.0,WNW,13.8,-,N/A,,Mostly Cloudy,300,2013-02-16 15:53:00
10:19 AM,26.6,12.2,55,30.22,10.0,NNW,12.7,-,N/A,,Scattered Clouds,330,2013-02-16 16:19:00
10:53 AM,27.0,12.0,53,30.23,10.0,NW,17.3,20.7,N/A,,Partly Cloudy,320,2013-02-16 16:53:00
11:53 AM,30.0,12.0,47,30.21,10.0,NNW,12.7,-,N/A,,Clear,330,2013-02-16 17:53:00
12:53 PM,30.9,12.0,46,30.19,10.0,NW,18.4,23.0,N/A,,Clear,310,2013-02-16 18:53:00
1:53 PM,32.0,12.0,44,30.19,10.0,WNW,13.8,21.9,N/A,,Partly Cloudy,290,2013-02-16 19:53:00
2:53 PM,32.0,10.9,42,30.19,10.0,NW,17.3,24.2,N/A,,Partly Cloudy,310,2013-02-16 20:53:00
3:53 PM,30.9,12.0,46,30.18,10.0,WNW,13.8,-,N/A,,Clear,300,2013-02-16 21:53:00
4:53 PM,30.0,10.9,45,30.18,10.0,WNW,12.7,-,N/A,,Clear,300,2013-02-16 22:53:00
5:53 PM,27.0,12.9,56,30.19,10.0,NW,8.1,-,N/A,,Clear,320,2013-02-16 23:53:00
6:53 PM,26.1,12.0,55,30.19,10.0,WNW,3.5,-,N/A,,Clear,290,2013-02-17 00:53:00
7:53 PM,26.1,12.9,58,30.19,10.0,WSW,3.5,-,N/A,,Clear,250,2013-02-17 01:53:00
8:53 PM,24.1,14.0,65,30.20,10.0,West,3.5,-,N/A,,Clear,260,2013-02-17 02:53:00
9:53 PM,23.0,14.0,68,30.21,10.0,WNW,5.8,-,N/A,,Clear,290,2013-02-17 03:53:00
10:53 PM,23.0,14.0,68,30.20,10.0,WNW,5.8,-,N/A,,Clear,290,2013-02-17 04:53:00
11:53 PM,24.1,14.0,65,30.20,10.0,West,3.5,-,N/A,,Clear,270,2013-02-17 05:53:00